STARLINK-2176 (47758 NORAD) Tracking and Keplerian Element Data

This shows tracking and keplerian element data for the satellite.

Feedback or suggestion? Click here.




ElementValue
Catalog47758
NameSTARLINK-2176
Epoch Orbit175
Epoch Day170.58334491
Epoch Year2021
RAAN31.4087
Inclination53.0557
Eccentricity0.0007087
Argument of Perigee298.8742
Mean Anonmoly196.238
Mean Motion15.06378746
Decay Rate0.00025114
L11 47758U 21017AN 21170.58334491 .00025114 00000-0 16991-2 0 9991
L22 47758 53.0557 31.4087 0007087 298.8742 196.2380 15.06378746 1752

Live tracking and technical data element details for STARLINK-2176 (NORAD 47758). STARLINK-2176 can be tracked NOW for your location showing map with azimuth and elevation plus other details from your city location.

Track the satellite on the map from your city or location and see movement details for azimuth, elevation, latitude, longitude, range, height, and movement on the map or in text.







IsCatalogInMostPopularTable: catalog: 47758, numindb: 46
Update: records affected: 1



GetName: 47758 STARLINK-2176

Hit Count: updated at: Mon, 21 Jun 2021 03:10:31 GMT